Algona, IA

7:26 AM CDT on April 28, 2017 (GMT -0500)
Algona Municipal

Weather History for KAXA - March, 2014

Change the Weather History Date:

Tuesday, March 11, 2014

  Actual Average Record
Temperature  
Mean Temperature 36 °F -  
Max Temperature 41 °F 32 °F 69 °F (2016)
Min Temperature 32 °F 19 °F -2 °F (1998)
Degree Days  
Heating Degree Days 28    
Moisture  
Dew Point 34 °F    
Average Humidity 89    
Maximum Humidity 100    
Minimum Humidity 70    
Precipitation  
Precipitation 0.06 in - - ()
Sea Level Pressure  
Sea Level Pressure 29.81 in    
Wind  
Wind Speed 14 mph (NNE)    
Max Wind Speed 25 mph    
Max Gust Speed 34 mph    
Visibility 9 miles    
Events Rain , Snow    
Averages and records for this station are not official NWS values.
T = Trace of Precipitation, MM = Missing Value Source: NWS Daily Summary

Daily Weather History Graph

Daily Weather History Graph

Search for Another Location

Airport or City:

Trip Planner

Search our weather history database for the weather conditions in past years. The results will help you decide how hot, cold, wet, or windy it might be!

Date:

Astronomy

Mar. 11, 2014 Rise Set
Actual Time 7:36 AM CDT 7:18 PM CDT
Civil Twilight 7:07 AM CDT 7:47 PM CDT
Nautical Twilight 6:34 AM CDT 8:19 PM CDT
Astronomical Twilight 6:01 AM CDT 8:53 PM CDT
Moon 2:50 PM CDT (3/11) 4:35 AM CDT (3/11)
Length of Visible Light 12h 39m
Length of Day
11h 42m
Waxing Gibbous, 78% of the Moon is Illuminated
Mar 11
Waxing Gibbous
Mar 16
Full
Mar 23
Last Quarter
Mar 30
New
Apr 7
First Quarter

Hourly Weather History & Observations

Time (CDT) Temp. Windchill Dew Point Humidity Pressure Visibility Wind Dir Wind Speed Gust Speed Precip Events Conditions
12:15 AM 39.2 °F 34.2 °F 37.4 °F 93% 29.68 in 10.0 mi ENE 6.9 mph - N/A   Overcast
12:35 AM 39.2 °F 33.6 °F 37.4 °F 93% 29.68 in 10.0 mi NE 8.1 mph - N/A   Overcast
12:55 AM 41.0 °F 36.4 °F 37.4 °F 87% 29.68 in 10.0 mi ENE 6.9 mph - N/A   Overcast
1:15 AM 41.0 °F 36.4 °F 37.4 °F 87% 29.67 in 10.0 mi NE 6.9 mph - N/A   Overcast
1:35 AM 41.0 °F 35.8 °F 37.4 °F 87% 29.67 in 10.0 mi NE 8.1 mph - N/A   Overcast
1:55 AM 37.4 °F 30.8 °F 35.6 °F 93% 29.68 in 10.0 mi NNE 9.2 mph - N/A   Overcast
2:15 AM 37.4 °F 30.8 °F 35.6 °F 93% 29.69 in 10.0 mi NE 9.2 mph - N/A   Overcast
2:35 AM 39.2 °F 33.0 °F 37.4 °F 93% 29.68 in 10.0 mi NE 9.2 mph - N/A   Overcast
2:55 AM 39.2 °F 33.0 °F 35.6 °F 87% 29.69 in 10.0 mi NE 9.2 mph - N/A   Overcast
3:15 AM 39.2 °F 33.0 °F 35.6 °F 87% 29.68 in 10.0 mi NE 9.2 mph - N/A   Overcast
3:35 AM 37.4 °F 30.8 °F 35.6 °F 93% 29.69 in 10.0 mi NNE 9.2 mph - N/A   Overcast
3:55 AM 37.4 °F 30.3 °F 37.4 °F 100% 29.68 in 10.0 mi NNE 10.4 mph - N/A   Overcast
4:15 AM 39.2 °F 33.6 °F 37.4 °F 93% 29.67 in 10.0 mi NE 8.1 mph - N/A   Overcast
4:35 AM 39.2 °F 32.5 °F 37.4 °F 93% 29.66 in 10.0 mi NNE 10.4 mph - N/A   Scattered Clouds
4:55 AM 39.2 °F 31.6 °F 37.4 °F 93% 29.66 in 10.0 mi NE 12.7 mph - N/A   Clear
5:15 AM 39.2 °F 30.8 °F 35.6 °F 87% 29.66 in 10.0 mi NE 15.0 mph - N/A   Clear
5:35 AM 39.2 °F 30.5 °F 35.6 °F 87% 29.65 in 10.0 mi NE 16.1 mph - N/A   Clear
5:55 AM 39.2 °F 30.8 °F 33.8 °F 81% 29.65 in 10.0 mi NE 15.0 mph - N/A   Clear
6:15 AM 39.2 °F 30.2 °F 33.8 °F 81% 29.64 in 10.0 mi NE 17.3 mph - N/A   Clear
6:35 AM 39.2 °F 30.5 °F 33.8 °F 81% 29.65 in 10.0 mi NE 16.1 mph 23.0 mph N/A   Clear
6:55 AM 39.2 °F 30.5 °F 33.8 °F 81% 29.67 in 10.0 mi NNE 16.1 mph 23.0 mph N/A   Scattered Clouds
7:15 AM 37.4 °F 27.8 °F 33.8 °F 87% 29.68 in 10.0 mi NNE 17.3 mph - N/A   Mostly Cloudy
7:35 AM 37.4 °F 28.5 °F 33.8 °F 87% 29.69 in 10.0 mi NNE 15.0 mph 21.9 mph N/A   Mostly Cloudy
7:55 AM 37.4 °F 26.9 °F 33.8 °F 87% 29.69 in 10.0 mi NNE 20.7 mph - N/A   Mostly Cloudy
8:15 AM 37.4 °F 26.6 °F 33.8 °F 87% 29.69 in 10.0 mi NE 21.9 mph - N/A   Scattered Clouds
8:35 AM 37.4 °F 27.2 °F 35.6 °F 93% 29.71 in 10.0 mi NNE 19.6 mph 27.6 mph N/A   Clear
8:55 AM 37.4 °F 26.9 °F 35.6 °F 93% 29.73 in 10.0 mi NNE 20.7 mph 27.6 mph N/A   Clear
9:15 AM 37.4 °F 26.1 °F 35.6 °F 93% 29.74 in 10.0 mi NNE 24.2 mph - N/A   Mostly Cloudy
9:35 AM 37.4 °F 26.9 °F 35.6 °F 93% 29.75 in 10.0 mi NNE 20.7 mph 29.9 mph N/A   Overcast
9:55 AM 37.4 °F 25.9 °F 35.6 °F 93% 29.76 in 10.0 mi NNE 25.3 mph - N/A   Overcast
10:15 AM 37.4 °F 25.9 °F 35.6 °F 93% 29.77 in 10.0 mi NNE 25.3 mph 34.5 mph N/A   Overcast
10:35 AM 37.4 °F 26.4 °F 35.6 °F 93% 29.79 in 10.0 mi NNE 23.0 mph 32.2 mph N/A   Overcast
10:55 AM 37.4 °F 26.6 °F 35.6 °F 93% 29.79 in 10.0 mi NNE 21.9 mph 31.1 mph N/A   Mostly Cloudy
11:15 AM 37.4 °F 26.1 °F 35.6 °F 93% 29.81 in 10.0 mi NNE 24.2 mph - N/A   Mostly Cloudy
11:35 AM 35.6 °F 24.0 °F 35.6 °F 100% 29.82 in 10.0 mi NNE 23.0 mph 29.9 mph N/A   Overcast
11:55 AM 35.6 °F 23.7 °F 35.6 °F 100% 29.84 in 10.0 mi NNE 24.2 mph - N/A   Overcast
12:15 PM 35.6 °F 25.5 °F 33.8 °F 93% 29.85 in 7.0 mi NNE 17.3 mph 27.6 mph N/A Rain Light Rain
12:35 PM 35.6 °F 24.8 °F 33.8 °F 93% 29.84 in 4.0 mi NNE 19.6 mph 27.6 mph N/A Rain Light Rain
12:55 PM 33.8 °F 21.6 °F 33.8 °F 100% 29.84 in 3.0 mi NNE 23.0 mph - N/A Snow Light Snow
1:15 PM 33.8 °F 22.5 °F 33.8 °F 100% 29.83 in 4.0 mi NNE 19.6 mph - N/A Snow Light Snow
1:35 PM 35.6 °F 25.2 °F 33.8 °F 93% 29.83 in 4.0 mi NNE 18.4 mph 29.9 mph N/A Snow Light Snow
1:55 PM 33.8 °F 21.9 °F 33.8 °F 100% 29.83 in 1.5 mi NNE 21.9 mph 28.8 mph 0.02 in Snow Light Snow
2:15 PM 33.8 °F 22.8 °F 33.8 °F 100% 29.83 in 1.2 mi NNE 18.4 mph 26.5 mph N/A Snow Light Snow
2:35 PM 33.8 °F 22.5 °F 33.8 °F 100% 29.83 in 0.5 mi NNE 19.6 mph - N/A Snow Light Snow
2:55 PM 33.8 °F 22.2 °F 33.8 °F 100% 29.82 in 0.8 mi NNE 20.7 mph - 0.03 in Snow Light Snow
3:15 PM 33.8 °F 23.9 °F 33.8 °F 100% 29.83 in 3.0 mi NNE 15.0 mph - N/A Snow Light Snow
3:35 PM 33.8 °F 25.8 °F 33.8 °F 100% 29.85 in 10.0 mi NNE 10.4 mph - N/A   Scattered Clouds
3:55 PM 35.6 °F 28.0 °F 33.8 °F 93% 29.86 in 10.0 mi NNE 10.4 mph 18.4 mph 0.01 in   Scattered Clouds
4:15 PM 35.6 °F 27.5 °F 33.8 °F 93% 29.88 in 10.0 mi North 11.5 mph - N/A   Scattered Clouds
4:35 PM 35.6 °F 27.5 °F 32.0 °F 87% 29.88 in 10.0 mi North 11.5 mph 18.4 mph N/A   Scattered Clouds
4:55 PM 35.6 °F 26.2 °F 32.0 °F 87% 29.89 in 10.0 mi North 15.0 mph - N/A   Mostly Cloudy
5:15 PM 35.6 °F 26.6 °F 32.0 °F 87% 29.91 in 10.0 mi North 13.8 mph 21.9 mph N/A   Scattered Clouds
5:35 PM 35.6 °F 27.1 °F 32.0 °F 87% 29.92 in 10.0 mi North 12.7 mph 21.9 mph N/A   Partly Cloudy
5:55 PM 35.6 °F 26.6 °F 32.0 °F 87% 29.93 in 10.0 mi North 13.8 mph - N/A   Clear
6:15 PM 35.6 °F 26.6 °F 32.0 °F 87% 29.94 in 10.0 mi North 13.8 mph 20.7 mph N/A   Clear
6:35 PM 35.6 °F 25.9 °F 32.0 °F 87% 29.95 in 10.0 mi North 16.1 mph - N/A   Clear
6:55 PM 35.6 °F 26.6 °F 32.0 °F 87% 29.95 in 10.0 mi North 13.8 mph - N/A   Clear
7:15 PM 35.6 °F 26.6 °F 32.0 °F 87% 29.96 in 10.0 mi North 13.8 mph 20.7 mph N/A   Scattered Clouds
7:35 PM 35.6 °F 26.6 °F 32.0 °F 87% 29.97 in 10.0 mi North 13.8 mph - N/A   Scattered Clouds
7:55 PM 35.6 °F 27.1 °F 30.2 °F 81% 29.97 in 10.0 mi North 12.7 mph - N/A   Partly Cloudy
8:15 PM 35.6 °F 27.1 °F 30.2 °F 81% 29.98 in 10.0 mi North 12.7 mph - N/A   Partly Cloudy
8:35 PM 35.6 °F 26.6 °F 30.2 °F 81% 29.98 in 10.0 mi North 13.8 mph - N/A   Partly Cloudy
8:55 PM 35.6 °F 26.6 °F 30.2 °F 81% 29.98 in 10.0 mi North 13.8 mph - N/A   Clear
9:15 PM 35.6 °F 25.9 °F 28.4 °F 75% 29.97 in 10.0 mi North 16.1 mph - N/A   Partly Cloudy
9:35 PM 35.6 °F 25.2 °F 28.4 °F 75% 29.97 in 10.0 mi NNW 18.4 mph 25.3 mph N/A   Clear
9:55 PM 35.6 °F 24.2 °F 26.6 °F 70% 29.97 in 10.0 mi North 21.9 mph 31.1 mph N/A   Clear
10:15 PM 33.8 °F 21.9 °F 28.4 °F 81% 29.97 in 10.0 mi North 21.9 mph 33.4 mph N/A   Clear
10:35 PM 33.8 °F 22.2 °F 28.4 °F 81% 29.98 in 10.0 mi North 20.7 mph 29.9 mph N/A   Clear
10:55 PM 33.8 °F 23.2 °F 28.4 °F 81% 29.99 in 10.0 mi NNW 17.3 mph 27.6 mph N/A   Clear
11:15 PM 32.0 °F 18.9 °F 28.4 °F 87% 30.00 in 10.0 mi North 24.2 mph 33.4 mph N/A   Partly Cloudy
11:35 PM 32.0 °F 20.5 °F 28.4 °F 87% 30.00 in 10.0 mi NNW 18.4 mph 24.2 mph N/A   Clear
11:55 PM 32.0 °F 18.6 °F 26.6 °F 80% 30.00 in 10.0 mi North 25.3 mph 31.1 mph N/A   Clear